Time,TemperatureF,DewpointF,PressureIn,WindDirection,WindDirectionDegrees,WindSpeedMPH,WindSpeedGustMPH,Humidity,HourlyPrecipIn,Conditions,Clouds,dailyrainin,SoftwareType,DateUTC
2013-01-03 00:05:00,29.3,26.2,30.29,West,281,4.0,6.0,88,0.00,,SKC,0.00,VWS V14.01,2013-01-03 06:05:00,
2013-01-03 00:09:00,29.3,26.2,30.29,West,281,5.0,6.0,88,0.00,,SKC,0.00,VWS V14.01,2013-01-03 06:09:00,
2013-01-03 00:17:00,29.4,26.3,30.29,West,281,5.0,6.0,88,0.00,,SKC,0.00,VWS V14.01,2013-01-03 06:17:00,
2013-01-03 00:25:00,29.8,26.4,30.28,WNW,287,2.0,7.0,87,0.00,,SKC,0.00,VWS V14.01,2013-01-03 06:25:00,
2013-01-03 00:29:00,29.9,26.2,30.28,WNW,288,3.0,7.0,86,0.00,,SKC,0.00,VWS V14.01,2013-01-03 06:29:00,
2013-01-03 00:33:00,29.8,26.4,30.28,WNW,288,0.0,4.0,87,0.00,,SKC,0.00,VWS V14.01,2013-01-03 06:33:00,
2013-01-03 00:37:00,29.6,26.2,30.28,WNW,288,4.0,5.0,87,0.00,,SKC,0.00,VWS V14.01,2013-01-03 06:37:00,
2013-01-03 00:45:00,29.4,26.0,30.28,West,265,4.0,7.0,87,0.00,,SKC,0.00,VWS V14.01,2013-01-03 06:45:00,
2013-01-03 00:53:00,29.5,26.1,30.28,West,275,4.0,7.0,87,0.00,,SKC,0.00,VWS V14.01,2013-01-03 06:53:00,
2013-01-03 00:59:00,29.5,26.1,30.29,West,276,4.0,7.0,87,0.00,,SKC,0.00,VWS V14.01,2013-01-03 06:59:00,
2013-01-03 01:01:00,29.5,26.1,30.29,West,276,4.0,5.0,87,0.00,,SKC,0.00,VWS V14.01,2013-01-03 07:01:00,
2013-01-03 01:05:00,29.4,26.3,30.29,West,276,4.0,5.0,88,0.00,,SKC,0.00,VWS V14.01,2013-01-03 07:05:00,
2013-01-03 01:13:00,29.3,26.2,30.29,West,276,3.0,5.0,88,0.00,,SKC,0.00,VWS V14.01,2013-01-03 07:13:00,
2013-01-03 01:21:00,29.3,26.2,30.29,West,276,3.0,5.0,88,0.00,,SKC,0.00,VWS V14.01,2013-01-03 07:21:00,
2013-01-03 01:29:00,29.4,26.3,30.28,West,277,3.0,5.0,88,0.00,,SKC,0.00,VWS V14.01,2013-01-03 07:29:00,
2013-01-03 01:33:00,29.6,26.2,30.28,WNW,288,2.0,5.0,87,0.00,,SKC,0.00,VWS V14.01,2013-01-03 07:33:00,
2013-01-03 01:37:00,29.6,26.2,30.29,WNW,287,3.0,5.0,87,0.00,,SKC,0.00,VWS V14.01,2013-01-03 07:37:00,
2013-01-03 01:45:00,29.9,26.2,30.29,WNW,302,3.0,6.0,86,0.00,,SKC,0.00,VWS V14.01,2013-01-03 07:45:00,
2013-01-03 01:49:00,30.1,26.4,30.29,WNW,301,4.0,7.0,86,0.00,,SKC,0.00,VWS V14.01,2013-01-03 07:49:00,
2013-01-03 01:53:00,30.2,26.2,30.29,WNW,299,4.0,7.0,85,0.00,,SKC,0.00,VWS V14.01,2013-01-03 07:53:00,
2013-01-03 01:59:00,30.3,26.3,30.29,WNW,298,2.0,7.0,85,0.00,,SKC,0.00,VWS V14.01,2013-01-03 07:59:00,
2013-01-03 02:05:00,30.2,26.2,30.30,WNW,300,3.0,6.0,85,0.00,,SKC,0.00,VWS V14.01,2013-01-03 08:05:00,
2013-01-03 02:13:00,30.2,26.2,30.30,WNW,302,4.0,6.0,85,0.00,,SKC,0.00,VWS V14.01,2013-01-03 08:13:00,
2013-01-03 02:17:00,30.3,26.1,30.30,WNW,300,4.0,8.0,84,0.00,,SKC,0.00,VWS V14.01,2013-01-03 08:17:00,
2013-01-03 02:21:00,30.3,26.1,30.30,WNW,296,5.0,8.0,84,0.00,,SKC,0.00,VWS V14.01,2013-01-03 08:21:00,
2013-01-03 02:25:00,30.3,26.1,30.30,WNW,302,4.0,8.0,84,0.00,,SKC,0.00,VWS V14.01,2013-01-03 08:25:00,
2013-01-03 02:29:00,30.2,26.0,30.30,WNW,298,4.0,8.0,84,0.00,,SKC,0.00,VWS V14.01,2013-01-03 08:29:00,
2013-01-03 02:37:00,30.1,25.9,30.31,WNW,302,6.0,8.0,84,0.00,,SKC,0.00,VWS V14.01,2013-01-03 08:37:00,
2013-01-03 02:41:00,30.1,25.9,30.31,NW,313,5.0,8.0,84,0.00,,SKC,0.00,VWS V14.01,2013-01-03 08:41:00,
2013-01-03 02:45:00,30.1,25.9,30.31,NW,311,6.0,8.0,84,0.00,,SKC,0.00,VWS V14.01,2013-01-03 08:45:00,
2013-01-03 02:49:00,30.0,25.8,30.31,WNW,294,6.0,8.0,84,0.00,,SKC,0.00,VWS V14.01,2013-01-03 08:49:00,
2013-01-03 02:57:00,29.8,25.6,30.32,West,278,3.0,9.0,84,0.00,,SKC,0.00,VWS V14.01,2013-01-03 08:57:00,
2013-01-03 02:59:00,29.7,25.5,30.32,West,271,4.0,9.0,84,0.00,,SKC,0.00,VWS V14.01,2013-01-03 08:59:00,
2013-01-03 03:01:00,29.7,25.5,30.32,WNW,285,6.0,6.0,84,0.00,,SKC,0.00,VWS V14.01,2013-01-03 09:01:00,
2013-01-03 03:05:00,29.6,25.6,30.32,WNW,298,6.0,7.0,85,0.00,,SKC,0.00,VWS V14.01,2013-01-03 09:05:00,
2013-01-03 03:09:00,29.6,25.6,30.32,WNW,284,3.0,7.0,85,0.00,,SKC,0.00,VWS V14.01,2013-01-03 09:09:00,
2013-01-03 03:13:00,29.5,25.6,30.32,WNW,284,3.0,7.0,85,0.00,,SKC,0.00,VWS V14.01,2013-01-03 09:13:00,
2013-01-03 03:17:00,29.5,25.6,30.32,West,281,5.0,7.0,85,0.00,,SKC,0.00,VWS V14.01,2013-01-03 09:17:00,
2013-01-03 03:21:00,29.5,25.6,30.32,WNW,298,4.0,7.0,85,0.00,,SKC,0.00,VWS V14.01,2013-01-03 09:21:00,
2013-01-03 03:29:00,29.3,25.4,30.32,NW,316,7.0,9.0,85,0.00,,SKC,0.00,VWS V14.01,2013-01-03 09:29:00,
2013-01-03 03:33:00,29.4,25.2,30.32,NW,323,6.0,10.0,84,0.00,,SKC,0.00,VWS V14.01,2013-01-03 09:33:00,
2013-01-03 03:41:00,29.4,25.2,30.32,WNW,298,5.0,10.0,84,0.00,,SKC,0.00,VWS V14.01,2013-01-03 09:41:00,
2013-01-03 03:49:00,29.3,25.1,30.32,WNW,284,5.0,10.0,84,0.00,,SKC,0.00,VWS V14.01,2013-01-03 09:49:00,
2013-01-03 03:57:00,29.2,25.0,30.32,NW,305,6.0,10.0,84,0.00,,SKC,0.00,VWS V14.01,2013-01-03 09:57:00,
2013-01-03 03:59:00,29.2,25.0,30.32,WNW,298,3.0,10.0,84,0.00,,SKC,0.00,VWS V14.01,2013-01-03 09:59:00,
2013-01-03 04:06:00,29.1,24.9,30.32,WNW,289,5.0,9.0,84,0.00,,SKC,0.00,VWS V14.01,2013-01-03 10:06:00,
2013-01-03 04:14:00,29.0,24.8,30.33,WNW,300,6.0,9.0,84,0.00,,SKC,0.00,VWS V14.01,2013-01-03 10:14:00,
2013-01-03 04:22:00,29.0,24.8,30.32,WNW,299,6.0,9.0,84,0.00,,SKC,0.00,VWS V14.01,2013-01-03 10:22:00,
2013-01-03 04:26:00,28.9,24.7,30.32,WNW,283,4.0,9.0,84,0.00,,SKC,0.00,VWS V14.01,2013-01-03 10:26:00,
2013-01-03 04:29:00,28.9,24.7,30.32,WNW,294,5.0,9.0,84,0.00,,SKC,0.00,VWS V14.01,2013-01-03 10:29:00,
2013-01-03 04:30:00,28.9,24.7,30.32,WNW,300,7.0,7.0,84,0.00,,SKC,0.00,VWS V14.01,2013-01-03 10:30:00,
2013-01-03 04:38:00,28.7,24.8,30.32,WNW,286,4.0,9.0,85,0.00,,SKC,0.00,VWS V14.01,2013-01-03 10:38:00,
2013-01-03 04:42:00,28.7,24.8,30.33,WNW,288,4.0,9.0,85,0.00,,SKC,0.00,VWS V14.01,2013-01-03 10:42:00,
2013-01-03 04:50:00,28.7,24.5,30.33,NW,304,7.0,9.0,84,0.00,,SKC,0.00,VWS V14.01,2013-01-03 10:50:00,
2013-01-03 04:54:00,28.7,24.5,30.33,NW,316,8.0,10.0,84,0.00,,SKC,0.00,VWS V14.01,2013-01-03 10:54:00,
2013-01-03 04:58:00,28.7,24.5,30.33,NW,306,6.0,10.0,84,0.00,,SKC,0.00,VWS V14.01,2013-01-03 10:58:00,
2013-01-03 05:06:00,28.8,24.6,30.33,WNW,303,6.0,11.0,84,0.00,,SKC,0.00,VWS V14.01,2013-01-03 11:06:00,
2013-01-03 05:10:00,28.7,24.5,30.33,WNW,298,5.0,11.0,84,0.00,,SKC,0.00,VWS V14.01,2013-01-03 11:10:00,
2013-01-03 05:18:00,28.8,24.6,30.33,WNW,286,7.0,11.0,84,0.00,,SKC,0.00,VWS V14.01,2013-01-03 11:18:00,
2013-01-03 05:26:00,28.8,24.6,30.34,WNW,295,6.0,11.0,84,0.00,,SKC,0.00,VWS V14.01,2013-01-03 11:26:00,
2013-01-03 05:29:00,28.7,24.5,30.34,NNW,333,8.0,11.0,84,0.00,,SKC,0.00,VWS V14.01,2013-01-03 11:29:00,
2013-01-03 05:34:00,28.7,24.2,30.34,NNW,327,8.0,11.0,83,0.00,,SKC,0.00,VWS V14.01,2013-01-03 11:34:00,
2013-01-03 05:38:00,28.9,24.4,30.34,NW,306,7.0,14.0,83,0.00,,SKC,0.00,VWS V14.01,2013-01-03 11:38:00,
2013-01-03 05:46:00,29.0,24.2,30.34,NW,321,4.0,14.0,82,0.00,,SKC,0.00,VWS V14.01,2013-01-03 11:46:00,
2013-01-03 05:50:00,28.9,24.1,30.35,NW,317,5.0,14.0,82,0.00,,SKC,0.00,VWS V14.01,2013-01-03 11:50:00,
2013-01-03 05:54:00,28.9,24.1,30.35,WNW,294,8.0,14.0,82,0.00,,SKC,0.00,VWS V14.01,2013-01-03 11:54:00,
2013-01-03 05:58:00,28.9,24.1,30.35,NW,319,5.0,14.0,82,0.00,,SKC,0.00,VWS V14.01,2013-01-03 11:58:00,
2013-01-03 06:02:00,28.8,24.0,30.35,WNW,302,4.0,8.0,82,0.00,,SKC,0.00,VWS V14.01,2013-01-03 12:02:00,
2013-01-03 06:06:00,28.7,24.2,30.35,WNW,302,6.0,8.0,83,0.00,,SKC,0.00,VWS V14.01,2013-01-03 12:06:00,
2013-01-03 06:10:00,28.6,24.1,30.35,WNW,291,5.0,8.0,83,0.00,,SKC,0.00,VWS V14.01,2013-01-03 12:10:00,
2013-01-03 06:14:00,28.6,24.1,30.35,NW,321,8.0,10.0,83,0.00,,SKC,0.00,VWS V14.01,2013-01-03 12:14:00,
2013-01-03 06:22:00,28.5,24.0,30.36,WNW,302,9.0,10.0,83,0.00,,SKC,0.00,VWS V14.01,2013-01-03 12:22:00,
2013-01-03 06:26:00,28.5,24.0,30.36,NW,305,7.0,10.0,83,0.00,,SKC,0.00,VWS V14.01,2013-01-03 12:26:00,
2013-01-03 06:29:00,28.5,24.0,30.36,WNW,297,5.0,10.0,83,0.00,,SKC,0.00,VWS V14.01,2013-01-03 12:29:00,
2013-01-03 06:30:00,28.5,24.0,30.36,NW,321,8.0,8.0,83,0.00,,SKC,0.00,VWS V14.01,2013-01-03 12:30:00,
2013-01-03 06:38:00,28.5,24.0,30.36,WNW,299,4.0,9.0,83,0.00,,SKC,0.00,VWS V14.01,2013-01-03 12:38:00,
2013-01-03 06:42:00,28.5,24.0,30.36,NNW,339,8.0,9.0,83,0.00,,SKC,0.00,VWS V14.01,2013-01-03 12:42:00,
2013-01-03 06:50:00,28.4,23.9,30.37,NW,310,8.0,9.0,83,0.00,,SKC,0.00,VWS V14.01,2013-01-03 12:50:00,
2013-01-03 06:54:00,28.4,23.9,30.37,NW,318,8.0,9.0,83,0.00,,SKC,0.00,VWS V14.01,2013-01-03 12:54:00,
2013-01-03 06:58:00,28.4,23.9,30.37,NW,310,6.0,10.0,83,0.00,,SKC,0.00,VWS V14.01,2013-01-03 12:58:00,
2013-01-03 06:59:00,28.4,23.9,30.37,NW,315,8.0,11.0,83,0.00,,SKC,0.00,VWS V14.01,2013-01-03 12:59:00,
2013-01-03 07:02:00,28.4,23.9,30.37,NW,319,7.0,9.0,83,0.00,,SKC,0.00,VWS V14.01,2013-01-03 13:02:00,
2013-01-03 07:06:00,28.4,23.9,30.37,NW,319,4.0,9.0,83,0.00,,SKC,0.00,VWS V14.01,2013-01-03 13:06:00,
2013-01-03 07:10:00,28.5,24.0,30.37,NW,314,8.0,12.0,83,0.00,,SKC,0.00,VWS V14.01,2013-01-03 13:10:00,
2013-01-03 07:18:00,28.5,24.0,30.37,North,355,6.0,12.0,83,0.00,,SKC,0.00,VWS V14.01,2013-01-03 13:18:00,
2013-01-03 07:26:00,28.5,24.0,30.37,NW,309,4.0,12.0,83,0.00,,SKC,0.00,VWS V14.01,2013-01-03 13:26:00,
2013-01-03 07:29:00,28.4,23.9,30.37,North,350,5.0,12.0,83,0.00,,SKC,0.00,VWS V14.01,2013-01-03 13:29:00,
2013-01-03 07:30:00,28.4,23.9,30.37,NW,317,6.0,9.0,83,0.00,,SKC,0.00,VWS V14.01,2013-01-03 13:30:00,
2013-01-03 07:34:00,28.4,23.9,30.38,North,5,8.0,11.0,83,0.00,,SKC,0.00,VWS V14.01,2013-01-03 13:34:00,
2013-01-03 07:38:00,28.3,24.1,30.38,NW,314,8.0,16.0,84,0.00,,SKC,0.00,VWS V14.01,2013-01-03 13:38:00,
2013-01-03 07:42:00,28.0,24.1,30.38,NE,44,7.0,16.0,85,0.00,,SKC,0.00,VWS V14.01,2013-01-03 13:42:00,
2013-01-03 07:50:00,26.9,23.3,30.39,NNE,26,10.0,19.0,86,0.00,,SKC,0.00,VWS V14.01,2013-01-03 13:50:00,
2013-01-03 07:54:00,26.6,23.0,30.39,NW,310,11.0,19.0,86,0.00,,SKC,0.00,VWS V14.01,2013-01-03 13:54:00,
2013-01-03 07:59:00,26.3,23.0,30.39,WNW,290,7.0,19.0,87,0.00,,SKC,0.00,VWS V14.01,2013-01-03 13:59:00,
2013-01-03 08:02:00,26.1,22.5,30.39,North,5,12.0,14.0,86,0.00,,SKC,0.00,VWS V14.01,2013-01-03 14:02:00,
2013-01-03 08:10:00,25.5,21.4,30.40,NNW,336,8.0,16.0,84,0.00,,SKC,0.00,VWS V14.01,2013-01-03 14:10:00,
2013-01-03 08:14:00,25.3,21.1,30.40,NNW,340,9.0,17.0,84,0.00,,SKC,0.00,VWS V14.01,2013-01-03 14:14:00,
2013-01-03 08:18:00,25.2,20.8,30.40,North,5,10.0,17.0,83,0.00,,SKC,0.00,VWS V14.01,2013-01-03 14:18:00,
2013-01-03 08:26:00,24.9,20.5,30.40,NNE,26,6.0,19.0,83,0.00,,SKC,0.00,VWS V14.01,2013-01-03 14:26:00,
2013-01-03 08:30:00,24.8,20.4,30.40,NNW,343,6.0,16.0,83,0.00,,SKC,0.00,VWS V14.01,2013-01-03 14:30:00,
2013-01-03 08:38:00,24.7,20.3,30.41,WNW,288,9.0,16.0,83,0.00,,SKC,0.00,VWS V14.01,2013-01-03 14:38:00,
2013-01-03 08:42:00,24.6,20.2,30.41,NNW,345,12.0,17.0,83,0.00,,SKC,0.00,VWS V14.01,2013-01-03 14:42:00,
2013-01-03 08:50:00,24.3,19.9,30.41,NNW,339,11.0,17.0,83,0.00,,SKC,0.00,VWS V14.01,2013-01-03 14:50:00,
2013-01-03 08:54:00,24.1,19.4,30.42,North,360,13.0,17.0,82,0.00,,SKC,0.00,VWS V14.01,2013-01-03 14:54:00,
2013-01-03 08:58:00,23.9,19.2,30.42,NNW,327,10.0,17.0,82,0.00,,SKC,0.00,VWS V14.01,2013-01-03 14:58:00,
2013-01-03 09:06:00,23.5,18.8,30.42,North,360,10.0,18.0,82,0.00,,SKC,0.00,VWS V14.01,2013-01-03 15:06:00,
2013-01-03 09:11:00,23.4,18.7,30.42,NNW,330,8.0,18.0,82,0.00,,SKC,0.00,VWS V14.01,2013-01-03 15:11:00,
2013-01-03 09:15:00,23.2,18.5,30.43,North,351,9.0,18.0,82,0.00,,SKC,0.00,VWS V14.01,2013-01-03 15:15:00,
2013-01-03 09:19:00,23.1,18.4,30.43,North,350,9.0,18.0,82,0.00,,SKC,0.00,VWS V14.01,2013-01-03 15:19:00,
2013-01-03 09:23:00,23.0,18.3,30.43,NNW,345,8.0,18.0,82,0.00,,SKC,0.00,VWS V14.01,2013-01-03 15:23:00,
2013-01-03 09:29:00,22.8,18.4,30.43,NNW,346,13.0,18.0,83,0.00,,SKC,0.00,VWS V14.01,2013-01-03 15:29:00,
2013-01-03 09:35:00,22.6,17.9,30.44,NNE,26,11.0,19.0,82,0.00,,SKC,0.00,VWS V14.01,2013-01-03 15:35:00,
2013-01-03 09:39:00,22.6,17.9,30.44,North,355,8.0,19.0,82,0.00,,SKC,0.00,VWS V14.01,2013-01-03 15:39:00,
2013-01-03 09:43:00,22.6,17.9,30.44,WNW,301,11.0,19.0,82,0.00,,SKC,0.00,VWS V14.01,2013-01-03 15:43:00,
2013-01-03 09:51:00,22.4,17.8,30.45,NW,320,12.0,19.0,82,0.00,,SKC,0.00,VWS V14.01,2013-01-03 15:51:00,
2013-01-03 09:59:00,21.9,17.0,30.45,NNW,342,9.0,19.0,81,0.00,,SKC,0.00,VWS V14.01,2013-01-03 15:59:00,
2013-01-03 10:03:00,21.3,16.1,30.45,North,355,10.0,18.0,80,0.00,,SKC,0.00,VWS V14.01,2013-01-03 16:03:00,
2013-01-03 10:07:00,21.0,15.8,30.45,North,360,7.0,18.0,80,0.00,,SKC,0.00,VWS V14.01,2013-01-03 16:07:00,
2013-01-03 10:11:00,20.9,15.4,30.46,NW,319,10.0,18.0,79,0.00,,SKC,0.00,VWS V14.01,2013-01-03 16:11:00,
2013-01-03 10:15:00,20.6,14.8,30.46,NW,326,10.0,18.0,78,0.00,,SKC,0.00,VWS V14.01,2013-01-03 16:15:00,
2013-01-03 10:23:00,20.2,14.2,30.46,NW,306,9.0,18.0,77,0.00,,SKC,0.00,VWS V14.01,2013-01-03 16:23:00,
2013-01-03 10:29:00,20.1,14.1,30.46,North,5,7.0,18.0,77,0.00,,SKC,0.00,VWS V14.01,2013-01-03 16:29:00,
2013-01-03 10:31:00,20.1,14.1,30.46,NW,309,5.0,10.0,77,0.00,,SKC,0.00,VWS V14.01,2013-01-03 16:31:00,
2013-01-03 10:35:00,20.0,13.7,30.47,NW,320,11.0,14.0,76,0.00,,SKC,0.00,VWS V14.01,2013-01-03 16:35:00,
2013-01-03 10:39:00,19.8,13.8,30.47,North,355,8.0,15.0,77,0.00,,SKC,0.00,VWS V14.01,2013-01-03 16:39:00,
2013-01-03 10:43:00,19.6,13.6,30.47,NNW,334,4.0,15.0,77,0.00,,SKC,0.00,VWS V14.01,2013-01-03 16:43:00,
2013-01-03 10:47:00,19.5,13.5,30.47,NNW,338,15.0,15.0,77,0.00,,SKC,0.00,VWS V14.01,2013-01-03 16:47:00,
2013-01-03 10:51:00,19.2,12.9,30.47,NNW,339,8.0,17.0,76,0.00,,SKC,0.00,VWS V14.01,2013-01-03 16:51:00,
2013-01-03 10:59:00,19.0,13.0,30.47,NNW,329,9.0,17.0,77,0.00,,SKC,0.00,VWS V14.01,2013-01-03 16:59:00,
2013-01-03 11:07:00,19.0,13.0,30.46,NW,319,7.0,16.0,77,0.00,,SKC,0.00,VWS V14.01,2013-01-03 17:07:00,
2013-01-03 11:11:00,19.0,12.7,30.46,North,11,11.0,16.0,76,0.00,,SKC,0.00,VWS V14.01,2013-01-03 17:11:00,
2013-01-03 11:15:00,18.9,12.6,30.46,NW,314,12.0,17.0,76,0.00,,SKC,0.00,VWS V14.01,2013-01-03 17:15:00,
2013-01-03 11:19:00,18.8,12.5,30.46,NW,319,7.0,17.0,76,0.00,,SKC,0.00,VWS V14.01,2013-01-03 17:19:00,
2013-01-03 11:27:00,18.9,12.9,30.45,NNW,338,5.0,17.0,77,0.00,,SKC,0.00,VWS V14.01,2013-01-03 17:27:00,
2013-01-03 11:29:00,19.0,13.0,30.45,North,350,6.0,17.0,77,0.00,,SKC,0.00,VWS V14.01,2013-01-03 17:29:00,
2013-01-03 11:35:00,19.1,13.1,30.45,North,355,7.0,14.0,77,0.00,,SKC,0.00,VWS V14.01,2013-01-03 17:35:00,
2013-01-03 11:39:00,19.3,13.3,30.45,North,355,9.0,14.0,77,0.00,,SKC,0.00,VWS V14.01,2013-01-03 17:39:00,
2013-01-03 11:43:00,19.3,13.0,30.45,North,355,9.0,15.0,76,0.00,,SKC,0.00,VWS V14.01,2013-01-03 17:43:00,
2013-01-03 11:47:00,19.3,13.0,30.45,North,360,6.0,15.0,76,0.00,,SKC,0.00,VWS V14.01,2013-01-03 17:47:00,
2013-01-03 11:55:00,19.5,13.2,30.45,NNW,346,5.0,15.0,76,0.00,,SKC,0.00,VWS V14.01,2013-01-03 17:55:00,
2013-01-03 11:59:00,19.4,13.1,30.45,North,350,6.0,15.0,76,0.00,,SKC,0.00,VWS V14.01,2013-01-03 17:59:00,
2013-01-03 12:07:00,19.3,13.3,30.45,NW,322,7.0,14.0,77,0.00,,SKC,0.00,VWS V14.01,2013-01-03 18:07:00,
2013-01-03 12:11:00,19.4,13.7,30.45,NNW,332,7.0,14.0,78,0.00,,SKC,0.00,VWS V14.01,2013-01-03 18:11:00,
2013-01-03 12:19:00,19.7,14.0,30.44,NNW,347,7.0,14.0,78,0.00,,SKC,0.00,VWS V14.01,2013-01-03 18:19:00,
2013-01-03 12:27:00,19.9,14.4,30.43,North,355,5.0,14.0,79,0.00,,SKC,0.00,VWS V14.01,2013-01-03 18:27:00,
2013-01-03 12:29:00,19.9,14.4,30.43,NNW,330,6.0,14.0,79,0.00,,SKC,0.00,VWS V14.01,2013-01-03 18:29:00,
2013-01-03 12:35:00,20.0,14.3,30.43,NNW,340,6.0,12.0,78,0.00,,SKC,0.00,VWS V14.01,2013-01-03 18:35:00,
2013-01-03 12:39:00,20.0,14.6,30.43,NW,324,11.0,12.0,79,0.00,,SKC,0.00,VWS V14.01,2013-01-03 18:39:00,
2013-01-03 12:43:00,20.2,14.7,30.43,North,355,4.0,12.0,79,0.00,,SKC,0.00,VWS V14.01,2013-01-03 18:43:00,
2013-01-03 12:47:00,20.4,14.9,30.44,NNW,337,6.0,12.0,79,0.00,,SKC,0.00,VWS V14.01,2013-01-03 18:47:00,
2013-01-03 12:51:00,20.5,15.0,30.43,NNW,330,2.0,12.0,79,0.00,,SKC,0.00,VWS V14.01,2013-01-03 18:51:00,
2013-01-03 12:59:00,20.6,15.1,30.43,NNW,330,4.0,12.0,79,0.00,,SKC,0.00,VWS V14.01,2013-01-03 18:59:00,
2013-01-03 13:07:00,20.6,15.1,30.43,NNW,334,3.0,9.0,79,0.00,,SKC,0.00,VWS V14.01,2013-01-03 19:07:00,
2013-01-03 13:15:00,20.9,15.4,30.43,NNW,337,7.0,10.0,79,0.00,,SKC,0.00,VWS V14.01,2013-01-03 19:15:00,
2013-01-03 13:52:00,21.4,15.9,30.42,NW,313,0.0,8.0,79,0.00,,SKC,0.00,VWS V14.01,2013-01-03 19:52:00,
2013-01-03 13:59:00,21.5,16.3,30.42,North,355,0.0,8.0,80,0.00,,SKC,0.00,VWS V14.01,2013-01-03 19:59:00,
2013-01-03 14:00:00,21.6,16.4,30.42,NNW,330,0.0,2.0,80,0.00,,SKC,0.00,VWS V14.01,2013-01-03 20:00:00,
2013-01-03 14:04:00,21.6,16.1,30.42,NNW,344,2.0,5.0,79,0.00,,SKC,0.00,VWS V14.01,2013-01-03 20:04:00,
2013-01-03 14:08:00,21.6,16.1,30.42,NW,314,0.0,5.0,79,0.00,,SKC,0.00,VWS V14.01,2013-01-03 20:08:00,
2013-01-03 14:16:00,21.8,16.6,30.42,NNW,327,2.0,5.0,80,0.00,,SKC,0.00,VWS V14.01,2013-01-03 20:16:00,
2013-01-03 14:24:00,21.7,16.2,30.42,NW,304,4.0,5.0,79,0.00,,SKC,0.00,VWS V14.01,2013-01-03 20:24:00,
2013-01-03 14:28:00,21.7,16.2,30.42,NW,316,0.0,5.0,79,0.00,,SKC,0.00,VWS V14.01,2013-01-03 20:28:00,
2013-01-03 14:29:00,21.7,16.2,30.42,NW,323,0.0,5.0,79,0.00,,SKC,0.00,VWS V14.01,2013-01-03 20:29:00,
2013-01-03 14:36:00,21.8,16.6,30.42,NW,323,0.0,4.0,80,0.00,,SKC,0.00,VWS V14.01,2013-01-03 20:36:00,
2013-01-03 14:44:00,22.0,16.8,30.42,NW,311,0.0,4.0,80,0.00,,SKC,0.00,VWS V14.01,2013-01-03 20:44:00,
2013-01-03 14:48:00,22.1,16.6,30.42,NW,321,0.0,5.0,79,0.00,,SKC,0.00,VWS V14.01,2013-01-03 20:48:00,
2013-01-03 14:52:00,22.1,16.9,30.42,NW,321,0.0,5.0,80,0.00,,SKC,0.00,VWS V14.01,2013-01-03 20:52:00,
2013-01-03 14:56:00,22.3,17.1,30.42,NW,325,0.0,5.0,80,0.00,,SKC,0.00,VWS V14.01,2013-01-03 20:56:00,
2013-01-03 14:59:00,22.3,17.1,30.42,NW,319,0.0,5.0,80,0.00,,SKC,0.00,VWS V14.01,2013-01-03 20:59:00,
2013-01-03 15:04:00,22.4,17.2,30.42,NW,319,0.0,0.0,80,0.00,,SKC,0.00,VWS V14.01,2013-01-03 21:04:00,
2013-01-03 15:12:00,22.4,17.2,30.42,WNW,300,0.0,3.0,80,0.00,,SKC,0.00,VWS V14.01,2013-01-03 21:12:00,
2013-01-03 15:20:00,22.4,17.2,30.42,WNW,301,0.0,3.0,80,0.00,,SKC,0.00,VWS V14.01,2013-01-03 21:20:00,
2013-01-03 15:28:00,22.5,17.0,30.42,WNW,301,0.0,3.0,79,0.00,,SKC,0.00,VWS V14.01,2013-01-03 21:28:00,
2013-01-03 15:29:00,22.5,17.3,30.42,WNW,301,0.0,3.0,80,0.00,,SKC,0.00,VWS V14.01,2013-01-03 21:29:00,
2013-01-03 15:36:00,22.6,17.1,30.42,WNW,300,0.0,0.0,79,0.00,,SKC,0.00,VWS V14.01,2013-01-03 21:36:00,
2013-01-03 15:45:00,22.5,17.3,30.42,SW,215,0.0,0.0,80,0.00,,SKC,0.00,VWS V14.01,2013-01-03 21:45:00,
2013-01-03 15:49:00,22.5,17.3,30.42,SSW,208,3.0,4.0,80,0.00,,SKC,0.00,VWS V14.01,2013-01-03 21:49:00,
2013-01-03 15:53:00,22.5,17.3,30.42,SSW,208,0.0,4.0,80,0.00,,SKC,0.00,VWS V14.01,2013-01-03 21:53:00,
2013-01-03 15:57:00,22.5,17.3,30.42,SSW,208,0.0,4.0,80,0.00,,SKC,0.00,VWS V14.01,2013-01-03 21:57:00,
2013-01-03 16:01:00,22.5,17.3,30.42,SSW,208,0.0,0.0,80,0.00,,SKC,0.00,VWS V14.01,2013-01-03 22:01:00,
2013-01-03 16:05:00,22.5,17.3,30.42,SSW,208,0.0,0.0,80,0.00,,SKC,0.00,VWS V14.01,2013-01-03 22:05:00,
2013-01-03 16:13:00,22.4,17.5,30.42,SSW,208,3.0,4.0,81,0.00,,SKC,0.00,VWS V14.01,2013-01-03 22:13:00,
2013-01-03 16:17:00,22.3,17.4,30.42,SSW,208,2.0,4.0,81,0.00,,SKC,0.00,VWS V14.01,2013-01-03 22:17:00,
2013-01-03 16:21:00,22.2,17.3,30.42,SSW,208,2.0,4.0,81,0.00,,SKC,0.00,VWS V14.01,2013-01-03 22:21:00,
2013-01-03 16:25:00,22.2,17.5,30.41,SSW,207,0.0,4.0,82,0.00,,SKC,0.00,VWS V14.01,2013-01-03 22:25:00,
2013-01-03 16:29:00,22.0,17.4,30.42,SSW,202,5.0,5.0,82,0.00,,SKC,0.00,VWS V14.01,2013-01-03 22:29:00,
2013-01-03 16:37:00,21.6,17.0,30.42,South,184,0.0,5.0,82,0.00,,SKC,0.00,VWS V14.01,2013-01-03 22:37:00,
2013-01-03 16:41:00,21.4,16.8,30.42,SSE,164,3.0,5.0,82,0.00,,SKC,0.00,VWS V14.01,2013-01-03 22:41:00,
2013-01-03 16:45:00,21.5,16.9,30.42,SSE,161,4.0,5.0,82,0.00,,SKC,0.00,VWS V14.01,2013-01-03 22:45:00,
2013-01-03 16:49:00,21.6,17.0,30.42,South,171,3.0,5.0,82,0.00,,SKC,0.00,VWS V14.01,2013-01-03 22:49:00,
2013-01-03 16:53:00,21.2,16.3,30.42,South,169,0.0,5.0,81,0.00,,SKC,0.00,VWS V14.01,2013-01-03 22:53:00,
2013-01-03 16:57:00,20.6,15.7,30.42,South,169,0.0,5.0,81,0.00,,SKC,0.00,VWS V14.01,2013-01-03 22:57:00,
2013-01-03 16:59:00,20.4,15.8,30.42,South,169,0.0,5.0,82,0.00,,SKC,0.00,VWS V14.01,2013-01-03 22:59:00,
2013-01-03 17:05:00,20.3,16.0,30.42,South,169,0.0,3.0,83,0.00,,SKC,0.00,VWS V14.01,2013-01-03 23:05:00,
2013-01-03 17:13:00,20.5,16.2,30.42,SSE,164,3.0,4.0,83,0.00,,SKC,0.00,VWS V14.01,2013-01-03 23:13:00,
2013-01-03 17:17:00,20.2,15.6,30.42,SSE,164,0.0,4.0,82,0.00,,SKC,0.00,VWS V14.01,2013-01-03 23:17:00,
2013-01-03 17:21:00,19.7,15.1,30.42,SSE,164,0.0,4.0,82,0.00,,SKC,0.00,VWS V14.01,2013-01-03 23:21:00,
2013-01-03 17:25:00,19.2,14.9,30.42,SSE,164,0.0,4.0,83,0.00,,SKC,0.00,VWS V14.01,2013-01-03 23:25:00,
2013-01-03 17:29:00,19.0,15.0,30.42,SSE,164,2.0,4.0,84,0.00,,SKC,0.00,VWS V14.01,2013-01-03 23:29:00,
2013-01-03 17:37:00,19.4,15.6,30.42,SSE,164,3.0,4.0,85,0.00,,SKC,0.00,VWS V14.01,2013-01-03 23:37:00,
2013-01-03 17:41:00,19.5,15.7,30.42,SSE,165,4.0,4.0,85,0.00,,SKC,0.00,VWS V14.01,2013-01-03 23:41:00,
2013-01-03 17:45:00,19.7,15.9,30.42,SSE,165,4.0,4.0,85,0.00,,SKC,0.00,VWS V14.01,2013-01-03 23:45:00,
2013-01-03 17:49:00,19.7,15.9,30.42,SSE,165,0.0,4.0,85,0.00,,SKC,0.00,VWS V14.01,2013-01-03 23:49:00,
2013-01-03 17:57:00,19.5,15.7,30.42,SSE,165,0.0,4.0,85,0.00,,SKC,0.00,VWS V14.01,2013-01-03 23:57:00,
2013-01-03 17:59:00,19.4,15.6,30.42,SSE,165,0.0,4.0,85,0.00,,SKC,0.00,VWS V14.01,2013-01-03 23:59:00,
2013-01-03 18:01:00,19.3,15.5,30.42,SSE,165,0.0,0.0,85,0.00,,SKC,0.00,VWS V14.01,2013-01-04 00:01:00,
2013-01-03 18:05:00,19.0,15.2,30.42,SSE,165,0.0,0.0,85,0.00,,SKC,0.00,VWS V14.01,2013-01-04 00:05:00,
2013-01-03 18:09:00,18.6,14.9,30.42,SSE,165,1.0,3.0,85,0.00,,SKC,0.00,VWS V14.01,2013-01-04 00:09:00,
2013-01-03 18:13:00,18.5,14.8,30.42,SSE,165,0.0,3.0,85,0.00,,SKC,0.00,VWS V14.01,2013-01-04 00:13:00,
2013-01-03 18:17:00,18.4,14.6,30.42,SSE,165,0.0,3.0,85,0.00,,SKC,0.00,VWS V14.01,2013-01-04 00:17:00,
2013-01-03 18:21:00,18.2,14.5,30.42,SSE,165,0.0,3.0,85,0.00,,SKC,0.00,VWS V14.01,2013-01-04 00:21:00,
2013-01-03 18:25:00,18.2,14.7,30.42,SSE,165,2.0,3.0,86,0.00,,SKC,0.00,VWS V14.01,2013-01-04 00:25:00,
2013-01-03 18:29:00,18.3,14.8,30.42,SSE,165,3.0,3.0,86,0.00,,SKC,0.00,VWS V14.01,2013-01-04 00:29:00,
2013-01-03 18:37:00,18.6,15.1,30.42,SSE,165,0.0,3.0,86,0.00,,SKC,0.00,VWS V14.01,2013-01-04 00:37:00,
2013-01-03 18:41:00,18.6,15.1,30.42,SSE,165,0.0,3.0,86,0.00,,SKC,0.00,VWS V14.01,2013-01-04 00:41:00,
2013-01-03 18:45:00,18.8,15.3,30.42,SSE,165,0.0,3.0,86,0.00,,SKC,0.00,VWS V14.01,2013-01-04 00:45:00,
2013-01-03 18:53:00,18.9,15.1,30.42,SSE,165,3.0,3.0,85,0.00,,SKC,0.00,VWS V14.01,2013-01-04 00:53:00,
2013-01-03 18:57:00,18.8,15.1,30.42,SSE,165,2.0,3.0,85,0.00,,SKC,0.00,VWS V14.01,2013-01-04 00:57:00,
2013-01-03 18:59:00,18.8,15.1,30.42,SSE,165,3.0,4.0,85,0.00,,SKC,0.00,VWS V14.01,2013-01-04 00:59:00,
2013-01-03 19:05:00,18.9,15.4,30.42,SSE,165,3.0,4.0,86,0.00,,SKC,0.00,VWS V14.01,2013-01-04 01:05:00,
2013-01-03 19:09:00,18.7,14.9,30.42,SSE,165,3.0,4.0,85,0.00,,SKC,0.00,VWS V14.01,2013-01-04 01:09:00,
2013-01-03 19:13:00,18.4,14.6,30.41,SSE,165,4.0,4.0,85,0.00,,SKC,0.00,VWS V14.01,2013-01-04 01:13:00,
2013-01-03 19:17:00,18.1,14.4,30.42,SSE,165,3.0,4.0,85,0.00,,SKC,0.00,VWS V14.01,2013-01-04 01:17:00,
2013-01-03 19:25:00,17.9,14.4,30.42,SSE,165,4.0,4.0,86,0.00,,SKC,0.00,VWS V14.01,2013-01-04 01:25:00,
2013-01-03 19:29:00,17.9,14.4,30.42,SSE,165,4.0,5.0,86,0.00,,SKC,0.00,VWS V14.01,2013-01-04 01:29:00,
2013-01-03 19:37:00,17.9,14.2,30.41,South,187,5.0,5.0,85,0.00,,SKC,0.00,VWS V14.01,2013-01-04 01:37:00,
2013-01-03 19:45:00,17.5,13.8,30.41,SSW,206,5.0,6.0,85,0.00,,SKC,0.00,VWS V14.01,2013-01-04 01:45:00,
2013-01-03 19:53:00,16.9,13.2,30.41,SSW,206,5.0,6.0,85,0.00,,SKC,0.00,VWS V14.01,2013-01-04 01:53:00,
2013-01-03 19:57:00,16.7,13.0,30.41,SSW,206,3.0,6.0,85,0.00,,SKC,0.00,VWS V14.01,2013-01-04 01:57:00,
2013-01-03 19:59:00,16.7,13.2,30.41,SSW,206,4.0,6.0,86,0.00,,SKC,0.00,VWS V14.01,2013-01-04 01:59:00,
2013-01-03 20:05:00,16.6,13.1,30.41,SSW,208,5.0,6.0,86,0.00,,SKC,0.00,VWS V14.01,2013-01-04 02:05:00,
2013-01-03 20:09:00,16.4,12.9,30.41,SSW,208,4.0,6.0,86,0.00,,SKC,0.00,VWS V14.01,2013-01-04 02:09:00,
2013-01-03 20:17:00,16.2,12.8,30.41,SSW,208,4.0,6.0,86,0.00,,SKC,0.00,VWS V14.01,2013-01-04 02:17:00,
2013-01-03 20:21:00,15.8,12.1,30.41,SSW,208,5.0,6.0,85,0.00,,SKC,0.00,VWS V14.01,2013-01-04 02:21:00,
2013-01-03 20:29:00,15.7,12.5,30.41,SSW,209,5.0,6.0,87,0.00,,SKC,0.00,VWS V14.01,2013-01-04 02:29:00,
2013-01-03 20:34:00,15.7,12.3,30.41,SSW,209,5.0,6.0,86,0.00,,SKC,0.00,VWS V14.01,2013-01-04 02:34:00,
2013-01-03 20:38:00,15.6,12.2,30.41,SSW,209,7.0,7.0,86,0.00,,SKC,0.00,VWS V14.01,2013-01-04 02:38:00,
2013-01-03 20:46:00,15.8,12.4,30.41,SSW,210,6.0,7.0,86,0.00,,SKC,0.00,VWS V14.01,2013-01-04 02:46:00,
2013-01-03 20:54:00,15.2,11.8,30.40,SSW,201,7.0,7.0,86,0.00,,SKC,0.00,VWS V14.01,2013-01-04 02:54:00,
2013-01-03 20:58:00,15.5,12.3,30.40,SSW,201,7.0,7.0,87,0.00,,SKC,0.00,VWS V14.01,2013-01-04 02:58:00,
2013-01-03 20:59:00,15.5,12.3,30.40,SSW,202,6.0,7.0,87,0.00,,SKC,0.00,VWS V14.01,2013-01-04 02:59:00,
2013-01-03 21:02:00,15.5,12.3,30.40,SSW,205,7.0,7.0,87,0.00,,SKC,0.00,VWS V14.01,2013-01-04 03:02:00,
2013-01-03 21:10:00,15.5,12.1,30.39,SSW,211,5.0,7.0,86,0.00,,SKC,0.00,VWS V14.01,2013-01-04 03:10:00,
2013-01-03 21:14:00,15.3,11.9,30.40,SW,217,5.0,7.0,86,0.00,,SKC,0.00,VWS V14.01,2013-01-04 03:14:00,
2013-01-03 21:22:00,15.9,12.7,30.40,SW,232,3.0,7.0,87,0.00,,SKC,0.00,VWS V14.01,2013-01-04 03:22:00,
2013-01-03 21:26:00,16.4,13.2,30.40,SW,214,1.0,7.0,87,0.00,,SKC,0.00,VWS V14.01,2013-01-04 03:26:00,
2013-01-03 21:34:00,16.4,12.9,30.40,SSW,207,3.0,5.0,86,0.00,,SKC,0.00,VWS V14.01,2013-01-04 03:34:00,
2013-01-03 21:38:00,16.5,13.1,30.40,SSW,213,2.0,6.0,86,0.00,,SKC,0.00,VWS V14.01,2013-01-04 03:38:00,
2013-01-03 21:46:00,16.2,12.5,30.40,SSW,209,4.0,6.0,85,0.00,,SKC,0.00,VWS V14.01,2013-01-04 03:46:00,
2013-01-03 21:50:00,15.9,12.2,30.40,SSW,209,4.0,6.0,85,0.00,,SKC,0.00,VWS V14.01,2013-01-04 03:50:00,
2013-01-03 21:54:00,15.6,11.9,30.40,SSW,205,5.0,6.0,85,0.00,,SKC,0.00,VWS V14.01,2013-01-04 03:54:00,
2013-01-03 21:58:00,15.3,11.6,30.40,SSW,205,4.0,6.0,85,0.00,,SKC,0.00,VWS V14.01,2013-01-04 03:58:00,
2013-01-03 21:59:00,15.1,11.4,30.40,SSW,204,6.0,6.0,85,0.00,,SKC,0.00,VWS V14.01,2013-01-04 03:59:00,
2013-01-03 22:06:00,14.6,11.2,30.40,SSW,200,5.0,6.0,86,0.00,,SKC,0.00,VWS V14.01,2013-01-04 04:06:00,
2013-01-03 22:10:00,14.9,11.7,30.39,SSW,205,5.0,6.0,87,0.00,,SKC,0.00,VWS V14.01,2013-01-04 04:10:00,
2013-01-03 22:14:00,14.8,11.4,30.40,SSW,205,4.0,6.0,86,0.00,,SKC,0.00,VWS V14.01,2013-01-04 04:14:00,
2013-01-03 22:18:00,14.7,11.3,30.40,SSW,209,4.0,6.0,86,0.00,,SKC,0.00,VWS V14.01,2013-01-04 04:18:00,
2013-01-03 22:22:00,15.0,11.8,30.40,SSW,210,4.0,6.0,87,0.00,,SKC,0.00,VWS V14.01,2013-01-04 04:22:00,
2013-01-03 22:26:00,15.2,12.0,30.39,SSW,208,5.0,6.0,87,0.00,,SKC,0.00,VWS V14.01,2013-01-04 04:26:00,
2013-01-03 22:29:00,15.3,12.1,30.40,SSW,211,3.0,6.0,87,0.00,,SKC,0.00,VWS V14.01,2013-01-04 04:29:00,
2013-01-03 22:34:00,15.4,12.2,30.39,SW,223,0.0,4.0,87,0.00,,SKC,0.00,VWS V14.01,2013-01-04 04:34:00,
2013-01-03 22:38:00,15.2,12.0,30.39,SSW,196,0.0,4.0,87,0.00,,SKC,0.00,VWS V14.01,2013-01-04 04:38:00,
2013-01-03 22:42:00,15.1,11.9,30.39,SW,217,4.0,4.0,87,0.00,,SKC,0.00,VWS V14.01,2013-01-04 04:42:00,
2013-01-03 22:50:00,15.2,12.0,30.39,SSW,211,4.0,5.0,87,0.00,,SKC,0.00,VWS V14.01,2013-01-04 04:50:00,
2013-01-03 22:54:00,15.3,12.1,30.39,SSW,211,4.0,5.0,87,0.00,,SKC,0.00,VWS V14.01,2013-01-04 04:54:00,
2013-01-03 22:58:00,15.2,12.0,30.39,SSW,209,3.0,5.0,87,0.00,,SKC,0.00,VWS V14.01,2013-01-04 04:58:00,
2013-01-03 23:06:00,14.8,11.4,30.39,SW,221,0.0,4.0,86,0.00,,SKC,0.00,VWS V14.01,2013-01-04 05:06:00,
2013-01-03 23:10:00,14.6,11.4,30.39,SW,229,0.0,4.0,87,0.00,,SKC,0.00,VWS V14.01,2013-01-04 05:10:00,
2013-01-03 23:14:00,14.4,11.2,30.39,SW,229,0.0,4.0,87,0.00,,SKC,0.00,VWS V14.01,2013-01-04 05:14:00,
2013-01-03 23:22:00,14.0,10.9,30.38,SW,221,0.0,4.0,87,0.00,,SKC,0.00,VWS V14.01,2013-01-04 05:22:00,
2013-01-03 23:29:00,13.9,11.0,30.38,SSW,213,3.0,4.0,88,0.00,,SKC,0.00,VWS V14.01,2013-01-04 05:29:00,
2013-01-03 23:30:00,13.9,11.0,30.38,SSW,211,2.0,4.0,88,0.00,,SKC,0.00,VWS V14.01,2013-01-04 05:30:00,
2013-01-03 23:38:00,13.6,10.7,30.38,SW,215,0.0,4.0,88,0.00,,SKC,0.00,VWS V14.01,2013-01-04 05:38:00,
2013-01-03 23:42:00,13.6,10.7,30.38,SW,222,0.0,4.0,88,0.00,,SKC,0.00,VWS V14.01,2013-01-04 05:42:00,
2013-01-03 23:50:00,13.6,10.7,30.38,SSW,209,3.0,4.0,88,0.00,,SKC,0.00,VWS V14.01,2013-01-04 05:50:00,
2013-01-03 23:58:00,13.4,10.8,30.38,SSW,211,0.0,4.0,89,0.00,,SKC,0.00,VWS V14.01,2013-01-04 05:58:00,